Regional Weather Roundup
Issued by NWS

Home | Current Version | Previous Version | Graphics & Text | Print | Product List | Glossary On
Versions: 1 2 3 4 5 6 7 8 9 10 11 12 13 14 15 16 17 18 19 20 21 22 23 24 25 26 27 28 29 30 31 32 33 34 35 36 37 38 39 40 41 42 43 44 45 46 47 48 49 50
000
ASUS43 KLMK 140402
RWRKY
KENTUCKY REGIONAL WEATHER ROUNDUP
NATIONAL WEATHER SERVICE LOUISVILLE KY
1200 AM EDT MON JUL 14 2014

NOTE "FAIR" INDICATES FEW OR NO CLOUDS BELOW 12,000 FEET
WITH NO SIGNIFICANT WEATHER AND/OR OBSTRUCTIONS TO VISIBILITY.

KYZ001>023-026-027-061>063-070>075-140500-
WESTERN AND SOUTH CENTRAL KENTUCKY

CITY           SKY/WX    TMP DP  RH WIND       PRES   REMARKS
PADUCAH        CLEAR     83  73  72 CALM      29.95S
HENDERSON      CLOUDY    72  66  83 NW15G22   29.95R
OWENSBORO      MOCLDY    80  74  82 W5        29.95R
HOPKINSVILLE   PTCLDY    82  74  77 SW8       29.98S
BOWLING GREEN  MOCLDY    83  70  64 SW8       29.98S
GLASGOW        NOT AVBL
$$

KYZ024-025-028>034-038-045-046-053-140500-
NORTH CENTRAL KENTUCKY

CITY           SKY/WX    TMP DP  RH WIND       PRES   REMARKS
LOUISVILLE/SDF TSTM      74  70  87 CALM      29.97R FOG
LOUISVILLE/LOU TSTM      73  71  93 CALM      29.98S VSB 1
FORT KNOX      TSTM      75  73  94 W20       29.98R FOG
$$

KYZ035>037-039>044-047>052-055>060-089>105-140500-
NORTHEAST KENTUCKY

CITY           SKY/WX    TMP DP  RH WIND       PRES   REMARKS
LEXINGTON      CLOUDY    76  71  85 N9        29.99R
COVINGTON      CLOUDY    73  71  93 SW5       29.95F
FRANKFORT      TSTM      74  70  87 SW6       29.99R
$$

KYZ054-064>069-076>088-106>120-140500-
SOUTHEAST KENTUCKY

CITY           SKY/WX    TMP DP  RH WIND       PRES   REMARKS
JACKSON        MOCLDY    79  67  66 VRB3      30.00F
LONDON         PTCLDY    81  68  64 SW7       30.02F
SOMERSET       PTCLDY    81  66  61 S5        30.01F
MIDDLESBORO    PTCLDY    72  70  93 CALM      30.05S
MONTICELLO     CLEAR     81  72  74 SW8       30.03S
$$




USA.gov is the U.S. government's official web portal to all federal, state and local government web resources and services.